Burnet, TX

6:16 PM CDT on April 24, 2017 (GMT -0500)
Burnet Municipal-Craddock

Weather History for KBMQ - March, 2013

Change the Weather History Date:

Friday, March 15, 2013

  Actual Average Record
Temperature  
Mean Temperature 65 °F -  
Max Temperature 79 °F 65 °F 87 °F (2016)
Min Temperature 51 °F 46 °F 34 °F (1999)
Growing Degree Days 15 (Base 50)    
Moisture  
Dew Point 46 °F    
Average Humidity 54    
Maximum Humidity 89    
Minimum Humidity 30    
Precipitation  
Precipitation 0.00 in - - ()
Sea Level Pressure  
Sea Level Pressure 30.10 in    
Wind  
Wind Speed 10 mph (South)    
Max Wind Speed 17 mph    
Max Gust Speed 28 mph    
Visibility 10 miles    
Events      
Averages and records for this station are not official NWS values.
T = Trace of Precipitation, MM = Missing Value Source: NWS Daily Summary

Daily Weather History Graph

Daily Weather History Graph

Search for Another Location

Airport or City:

Trip Planner

Search our weather history database for the weather conditions in past years. The results will help you decide how hot, cold, wet, or windy it might be!

Date:

Astronomy

Mar. 15, 2013 Rise Set
Actual Time 7:42 AM CDT 7:41 PM CDT
Civil Twilight 7:18 AM CDT 8:05 PM CDT
Nautical Twilight 6:50 AM CDT 8:33 PM CDT
Astronomical Twilight 6:22 AM CDT 9:01 PM CDT
Moon 9:51 AM CDT (3/15) 11:37 PM CDT (3/15)
Length of Visible Light 12h 46m
Length of Day
11h 58m
Waxing Crescent, 15% of the Moon is Illuminated
Mar 15
Waxing Crescent
Mar 19
First Quarter
Mar 27
Full
Apr 2
Last Quarter
Apr 10
New

Hourly Weather History & Observations

Time (CDT) Temp. Dew Point Humidity Pressure Visibility Wind Dir Wind Speed Gust Speed Precip Events Conditions
12:53 AM 57.9 °F 46.0 °F 65% 30.22 in 10.0 mi South 8.1 mph - N/A   Clear
1:53 AM 57.9 °F 50.0 °F 75% 30.21 in 10.0 mi South 10.4 mph - N/A   Clear
2:53 AM 57.0 °F 50.0 °F 77% 30.20 in 10.0 mi South 10.4 mph - N/A   Clear
4:53 AM 55.0 °F 51.1 °F 86% 30.17 in 10.0 mi South 8.1 mph - N/A   Clear
5:53 AM 54.0 °F 50.0 °F 86% 30.17 in 10.0 mi SSW 5.8 mph - N/A   Clear
6:53 AM 54.0 °F 50.0 °F 86% 30.17 in 10.0 mi SSW 4.6 mph - N/A   Clear
7:53 AM 51.1 °F 48.0 °F 89% 30.17 in 5.0 mi Calm Calm - N/A   Clear
8:53 AM 55.9 °F 51.1 °F 84% 30.18 in 9.0 mi South 9.2 mph - N/A   Clear
9:53 AM 60.1 °F 51.1 °F 72% 30.19 in 10.0 mi South 9.2 mph - N/A   Clear
10:53 AM 64.9 °F 48.9 °F 56% 30.19 in 10.0 mi SSW 13.8 mph 20.7 mph N/A   Clear
11:53 AM 70.0 °F 46.0 °F 42% 30.16 in 10.0 mi SSW 11.5 mph 25.3 mph N/A   Clear
12:53 PM 73.0 °F 44.1 °F 35% 30.13 in 10.0 mi South 17.3 mph 25.3 mph N/A   Clear
1:53 PM 75.9 °F 44.1 °F 32% 30.09 in 10.0 mi South 15.0 mph 27.6 mph N/A   Clear
2:53 PM 77.0 °F 43.0 °F 30% 30.05 in 10.0 mi SSW 16.1 mph 25.3 mph N/A   Clear
3:53 PM 78.1 °F 44.1 °F 30% 30.01 in 10.0 mi South 16.1 mph 26.5 mph N/A   Clear
4:53 PM 79.0 °F 45.0 °F 30% 30.00 in 10.0 mi South 12.7 mph 21.9 mph N/A   Clear
5:53 PM 78.1 °F 45.0 °F 31% 29.99 in 10.0 mi South 16.1 mph - N/A   Clear
6:53 PM 75.9 °F 44.1 °F 32% 29.98 in 10.0 mi South 10.4 mph 21.9 mph N/A   Clear
7:53 PM 73.0 °F 43.0 °F 34% 29.99 in 10.0 mi South 9.2 mph - N/A   Clear
8:53 PM 70.0 °F 39.9 °F 33% 29.98 in 10.0 mi South 9.2 mph - N/A   Clear
9:53 PM 66.9 °F 39.0 °F 36% 29.98 in 10.0 mi South 6.9 mph - N/A   Clear
10:53 PM 66.0 °F 44.1 °F 45% 29.99 in 10.0 mi South 10.4 mph - N/A   Clear
11:53 PM 64.0 °F 46.9 °F 54% 29.98 in 10.0 mi South 11.5 mph - N/A   Clear